Weather History for Richlands, VA

Change the Weather History Date:

Tuesday, February 25, 2014

  Actual Average (KBLF) Record (KBLF)
Temperature  
Mean Temperature 34 °F 40 °F  
Max Temperature 38 °F 48 °F 68 °F (2000)
Min Temperature 29 °F 31 °F -6 °F (1967)
Degree Days  
Heating Degree Days 32 25  
Month to date heating degree days 698  
Since 1 July heating degree days 3418  
Cooling Degree Days 0 0  
Month to date cooling degree days 0  
Year to date cooling degree days 0  
Moisture  
Dew Point 14 °F    
Average Humidity 45    
Maximum Humidity 61    
Minimum Humidity 35    
Precipitation  
Precipitation 0.00 in 0.11 in 2.08 in (1961)
Month to date precipitation 2.45  
Year to date precipitation 5.35  
Snow  
Snow 0.00 in - - ()
Month to date snowfall  
Since 1 July snowfall  
Snow Depth -    
Sea Level Pressure  
Sea Level Pressure 30.00 in    
Wind  
Wind Speed 3 mph (WNW)    
Max Wind Speed 10 mph    
Max Gust Speed -    
Visibility 10 miles    
Events      
T = Trace of Precipitation, MM = Missing Value Source: NWS Daily Summary

Daily Weather History Graph

Daily Weather History Graph

Search for Another Location

Airport:

Trip Planner

Search our weather history database for the weather conditions in past years. The results will help you decide how hot, cold, wet, or windy it might be!

Date:

Astronomy

Feb. 25, 2014 Rise Set
Actual Time 7:03 AM EST 6:17 PM EST
Civil Twilight 6:37 AM EST 6:43 PM EST
Nautical Twilight 6:07 AM EST 7:13 PM EST
Astronomical Twilight 5:37 AM EST 7:43 PM EST
Moon 3:53 AM EST (2/25) 2:25 PM EST (2/25)
Length of Visible Light 12h 06m
Length of Day
11h 13m
Waning Crescent, 18% of the Moon is Illuminated
Feb 25
Waning Crescent
Mar 1
New
Mar 8
First Quarter
Mar 16
Full
Mar 23
Last Quarter

Hourly Weather History & Observations

Time (EST) Temp. Windchill Dew Point Humidity Pressure Visibility Wind Dir Wind Speed Gust Speed Precip Events Conditions
12:15 AM 31.8 °F 28.5 °F 9.7 °F 40% 30.06 in 10.0 mi North 3.5 mph - N/A   Scattered Clouds
12:35 AM 32.2 °F - 8.6 °F 37% 30.06 in 10.0 mi Calm Calm - N/A   Clear
12:55 AM 32.4 °F - 7.5 °F 35% 30.05 in 10.0 mi Calm Calm - N/A   Clear
1:15 AM 32.0 °F - 8.6 °F 38% 30.05 in 10.0 mi Calm Calm - N/A   Clear
1:35 AM 32.2 °F - 7.5 °F 36% 30.04 in 10.0 mi Calm Calm - N/A   Clear
1:55 AM 32.0 °F - 8.4 °F 37% 30.04 in 10.0 mi Calm Calm - N/A   Scattered Clouds
2:20 AM 31.6 °F - 8.1 °F 37% 30.03 in 10.0 mi Calm Calm - N/A   Scattered Clouds
2:35 AM 30.0 °F - 9.0 °F 41% 30.03 in 10.0 mi Calm Calm - N/A   Scattered Clouds
2:55 AM 30.0 °F - 10.2 °F 44% 30.03 in 10.0 mi Calm Calm - N/A   Overcast
3:15 AM 30.7 °F - 10.8 °F 43% 30.01 in 10.0 mi Calm Calm - N/A   Overcast
4:55 AM 30.2 °F - 12.4 °F 48% 30.00 in 10.0 mi Calm Calm - N/A   Overcast
5:15 AM 30.7 °F - 12.4 °F 47% 30.00 in 10.0 mi Calm Calm - N/A   Overcast
5:35 AM 30.0 °F 26.5 °F 12.9 °F 49% 30.00 in 10.0 mi NNE 3.5 mph - N/A   Overcast
5:55 AM 30.2 °F - 12.4 °F 48% 30.01 in 10.0 mi Calm Calm - N/A   Overcast
6:15 AM 30.9 °F - 10.9 °F 43% 30.00 in 10.0 mi Calm Calm - N/A   Overcast
6:35 AM 30.7 °F 27.3 °F 18.9 °F 61% 30.00 in 10.0 mi SSE 3.5 mph - N/A   Overcast
6:55 AM 30.2 °F - 18.3 °F 61% 30.00 in 10.0 mi Calm Calm - N/A   Overcast
7:15 AM 30.6 °F - 18.0 °F 60% 30.00 in 10.0 mi Calm Calm - N/A   Overcast
7:35 AM 29.7 °F 23.7 °F 17.2 °F 60% 30.01 in 10.0 mi NNW 5.8 mph - N/A   Overcast
7:55 AM 29.7 °F 24.7 °F 16.7 °F 59% 30.03 in 10.0 mi NW 4.6 mph - N/A   Overcast
8:15 AM 30.6 °F - 14.5 °F 51% 30.03 in 10.0 mi Calm Calm - N/A   Overcast
8:35 AM 31.1 °F 27.7 °F 12.9 °F 47% 30.04 in 10.0 mi NNW 3.5 mph - N/A   Overcast
8:55 AM 31.1 °F - 12.2 °F 46% 30.04 in 10.0 mi Calm Calm - N/A   Overcast
9:15 AM 31.5 °F - 12.2 °F 45% 30.04 in 10.0 mi Calm Calm - N/A   Overcast
9:35 AM 31.8 °F 28.5 °F 11.8 °F 44% 30.05 in 10.0 mi WNW 3.5 mph - N/A   Overcast
9:55 AM 32.0 °F 27.5 °F 12.0 °F 44% 30.06 in 10.0 mi NW 4.6 mph - N/A   Overcast
10:15 AM 32.0 °F 24.2 °F 10.4 °F 41% 30.05 in 10.0 mi NNW 9.2 mph - N/A   Overcast
10:35 AM 32.0 °F 25.6 °F 11.1 °F 42% 30.05 in 10.0 mi NNW 6.9 mph - N/A   Overcast
10:55 AM 32.0 °F 24.8 °F 11.8 °F 43% 30.06 in 10.0 mi NW 8.1 mph - N/A   Overcast
11:15 AM 32.2 °F 24.4 °F 12.4 °F 44% 30.06 in 10.0 mi NW 9.2 mph - N/A   Overcast
11:35 AM 32.0 °F 26.4 °F 11.8 °F 43% 30.05 in 10.0 mi WNW 5.8 mph - N/A   Overcast
11:50 AM 32.4 °F 26.9 °F 11.8 °F 43% 30.05 in 10.0 mi NNW 5.8 mph - N/A   Overcast
12:20 PM 32.4 °F 27.9 °F 11.3 °F 42% 30.05 in 10.0 mi WNW 4.6 mph - N/A   Overcast
12:29 PM 32.0 °F 28.7 °F 10.4 °F 41% 30.04 in 10.0 mi West 3.5 mph - N/A   Overcast
12:35 PM 32.7 °F 29.6 °F 12.4 °F 43% 30.04 in 10.0 mi West 3.5 mph - N/A   Overcast
12:55 PM 32.9 °F 26.7 °F 11.1 °F 40% 30.04 in 10.0 mi West 6.9 mph - N/A   Overcast
1:15 PM 33.1 °F 28.7 °F 10.9 °F 40% 30.03 in 10.0 mi NW 4.6 mph - N/A   Overcast
1:35 PM 33.8 °F 28.6 °F 12.2 °F 41% 30.01 in 10.0 mi WNW 5.8 mph - N/A   Overcast
1:55 PM 33.8 °F 28.6 °F 12.4 °F 41% 30.01 in 10.0 mi WNW 5.8 mph - N/A   Overcast
2:15 PM 34.5 °F 27.3 °F 12.9 °F 41% 30.00 in 10.0 mi West 9.2 mph - N/A   Overcast
2:35 PM 34.9 °F 27.7 °F 13.8 °F 42% 29.99 in 10.0 mi WSW 9.2 mph - N/A   Overcast
2:55 PM 35.6 °F - 13.8 °F 41% 29.98 in 10.0 mi Calm Calm - N/A   Overcast
3:15 PM 37.6 °F 32.3 °F 15.1 °F 40% 29.98 in 10.0 mi WNW 6.9 mph - N/A   Mostly Cloudy
3:35 PM 37.4 °F 31.4 °F 14.2 °F 39% 29.97 in 10.0 mi NW 8.1 mph - N/A   Scattered Clouds
3:55 PM 38.3 °F 33.9 °F 14.9 °F 39% 29.97 in 10.0 mi NW 5.8 mph - N/A   Clear
4:15 PM 38.1 °F 34.6 °F 14.7 °F 39% 29.96 in 10.0 mi West 4.6 mph - N/A   Clear
4:35 PM 38.5 °F 31.6 °F 14.9 °F 38% 29.95 in 10.0 mi West 10.4 mph - N/A   Clear
4:55 PM 38.3 °F 33.9 °F 15.1 °F 39% 29.96 in 10.0 mi West 5.8 mph - N/A   Clear
5:15 PM 37.9 °F 33.5 °F 15.1 °F 39% 29.96 in 10.0 mi NW 5.8 mph - N/A   Clear
5:35 PM 37.4 °F 33.8 °F 14.9 °F 40% 29.94 in 10.0 mi WNW 4.6 mph - N/A   Clear
5:55 PM 36.5 °F 30.3 °F 14.9 °F 41% 29.94 in 10.0 mi NNW 8.1 mph - N/A   Clear
6:15 PM 35.2 °F 30.3 °F 14.9 °F 43% 29.95 in 10.0 mi NW 5.8 mph - N/A   Clear
6:35 PM 34.7 °F 28.8 °F 15.3 °F 45% 29.96 in 10.0 mi NNW 6.9 mph - N/A   Clear
6:55 PM 34.0 °F 27.2 °F 15.4 °F 47% 29.96 in 10.0 mi NNW 8.1 mph - N/A   Clear
7:15 PM 33.8 °F 27.0 °F 15.6 °F 47% 29.97 in 10.0 mi NNW 8.1 mph - N/A   Clear
7:35 PM 33.6 °F 27.5 °F 15.8 °F 48% 29.98 in 10.0 mi NW 6.9 mph - N/A   Clear
7:55 PM 33.1 °F 30.0 °F 15.8 °F 49% 29.98 in 10.0 mi NNW 3.5 mph - N/A   Clear
8:15 PM 32.9 °F 29.8 °F 15.8 °F 49% 29.98 in 10.0 mi NW 3.5 mph - N/A   Clear
8:35 PM 32.9 °F - 15.8 °F 49% 29.98 in 10.0 mi Calm Calm - N/A   Clear
8:55 PM 33.3 °F 30.2 °F 16.2 °F 50% 29.98 in 10.0 mi SW 3.5 mph - N/A   Scattered Clouds
9:15 PM 32.9 °F 29.8 °F 16.5 °F 51% 29.98 in 10.0 mi WSW 3.5 mph - N/A   Mostly Cloudy
9:35 PM 32.5 °F 28.1 °F 16.9 °F 53% 29.98 in 10.0 mi West 4.6 mph - N/A   Scattered Clouds
9:55 PM 32.5 °F 28.1 °F 17.1 °F 53% 29.98 in 10.0 mi WNW 4.6 mph - N/A   Mostly Cloudy
10:15 PM 32.4 °F 27.9 °F 17.2 °F 54% 29.98 in 10.0 mi West 4.6 mph - N/A   Overcast
10:35 PM 32.5 °F 28.1 °F 17.4 °F 54% 29.98 in 10.0 mi West 4.6 mph - N/A   Overcast
10:55 PM 32.4 °F 29.1 °F 17.4 °F 54% 29.97 in 10.0 mi West 3.5 mph - N/A   Overcast
11:15 PM 32.0 °F 28.7 °F 17.6 °F 55% 29.96 in 10.0 mi WSW 3.5 mph - N/A   Scattered Clouds
11:35 PM 32.0 °F - 17.4 °F 55% 29.94 in 10.0 mi Calm Calm - N/A   Clear
11:55 PM 31.8 °F 28.5 °F 17.8 °F 56% 29.93 in 10.0 mi West 3.5 mph - N/A   Clear